• In Hungary
  • List of Countries
  • For 7 days
  • Water Temperature
  • Satellite Maps
  • Weather Map
  • News
  • Weather Widgets
  • user-avatar
    Login

    Hourly Weather Smocheli

    Today, 18 June, Monday

    Time Temperature Precipitation Wind Pressure Humidity
    00:00 +15°C° 0 mm 1 mps 746 mmHg 81%
    01:00 +15°C° 0 mm 1 mps 746 mmHg 82%
    02:00 +14°C° 0 mm 1 mps 745 mmHg 85%
    03:00 +15°C° 0 mm 1 mps 745 mmHg 83%
    04:00 +16°C° 0 mm 1 mps 745 mmHg 81%
    05:00 +16°C° 0 mm 1 mps 745 mmHg 80%
    06:00 +19°C° 0 mm 1 mps 745 mmHg 73%
    07:00 +21°C° 0 mm 1 mps 745 mmHg 67%
    08:00 +23°C° 0 mm 2 mps 745 mmHg 61%
    09:00 +25°C° 0 mm 2 mps 745 mmHg 55%
    10:00 +26°C° 0 mm 2 mps 745 mmHg 50%
    11:00 +27°C° 0 mm 2 mps 745 mmHg 45%
    12:00 +27°C° 0 mm 2 mps 745 mmHg 45%
    13:00 +27°C° 0 mm 2 mps 744 mmHg 46%
    14:00 +27°C° 0 mm 2 mps 744 mmHg 46%
    15:00 +27°C° 0 mm 2 mps 744 mmHg 50%
    16:00 +27°C° 0 mm 2 mps 744 mmHg 53%
    17:00 +26°C° 0 mm 2 mps 743 mmHg 56%
    18:00 +25°C° 0.1 mm 2 mps 743 mmHg 63%
    19:00 +23°C° 0.1 mm 2 mps 743 mmHg 69%
    20:00 +21°C° 0.1 mm 1 mps 743 mmHg 76%
    21:00 +20°C° 0 mm 1 mps 743 mmHg 80%
    22:00 +19°C° 0 mm 1 mps 743 mmHg 84%
    23:00 +18°C° 0 mm 1 mps 742 mmHg 88%

    Tomorrow, 19 June, Tuesday

    Time Temperature Precipitation Wind Pressure Humidity
    00:00 +18°C° 0 mm 1 mps 742 mmHg 90%
    01:00 +16°C° 0 mm 1 mps 742 mmHg 93%
    02:00 +16°C° 0 mm 1 mps 742 mmHg 95%
    03:00 +16°C° 0 mm 2 mps 742 mmHg 94%
    04:00 +17°C° 0 mm 2 mps 742 mmHg 92%
    05:00 +17°C° 0 mm 2 mps 742 mmHg 91%
    06:00 +19°C° 0.1 mm 2 mps 742 mmHg 85%
    07:00 +21°C° 0.1 mm 2 mps 742 mmHg 79%
    08:00 +23°C° 0.1 mm 2 mps 742 mmHg 73%
    09:00 +24°C° 0.1 mm 2 mps 742 mmHg 66%
    10:00 +26°C° 0.1 mm 3 mps 741 mmHg 59%
    11:00 +27°C° 0.1 mm 3 mps 741 mmHg 52%
    12:00 +27°C° 0.3 mm 3 mps 741 mmHg 54%
    13:00 +26°C° 0.3 mm 4 mps 741 mmHg 56%
    14:00 +26°C° 0.3 mm 4 mps 740 mmHg 59%
    15:00 +26°C° 0.1 mm 4 mps 740 mmHg 58%
    16:00 +26°C° 0.1 mm 4 mps 740 mmHg 57%
    17:00 +25°C° 0.1 mm 4 mps 740 mmHg 56%
    18:00 +22°C° 0 mm 3 mps 739 mmHg 61%
    19:00 +20°C° 0 mm 3 mps 739 mmHg 67%
    20:00 +19°C° 0 mm 2 mps 739 mmHg 72%
    21:00 +18°C° 0 mm 3 mps 739 mmHg 73%
    22:00 +17°C° 0 mm 3 mps 739 mmHg 74%
    23:00 +16°C° 0 mm 3 mps 739 mmHg 76%

    Day after tomorrow, 20 June, Wednesday

    Time Temperature Precipitation Wind Pressure Humidity
    00:00 +16°C° 0 mm 3 mps 739 mmHg 78%
    01:00 +16°C° 0 mm 3 mps 740 mmHg 81%
    02:00 +16°C° 0 mm 3 mps 740 mmHg 84%
    03:00 +14°C° 0 mm 4 mps 740 mmHg 83%
    04:00 +14°C° 0 mm 4 mps 740 mmHg 82%
    05:00 +14°C° 0 mm 4 mps 740 mmHg 82%
    06:00 +15°C° 0 mm 4 mps 741 mmHg 74%
    07:00 +16°C° 0 mm 5 mps 741 mmHg 66%
    08:00 +17°C° 0 mm 5 mps 741 mmHg 58%
    09:00 +19°C° 0 mm 5 mps 741 mmHg 52%
    10:00 +20°C° 0 mm 5 mps 741 mmHg 47%
    11:00 +21°C° 0 mm 5 mps 741 mmHg 42%
    12:00 +22°C° 0 mm 5 mps 741 mmHg 41%
    13:00 +22°C° 0 mm 5 mps 741 mmHg 40%
    14:00 +23°C° 0 mm 5 mps 741 mmHg 39%
    15:00 +22°C° 0 mm 5 mps 741 mmHg 41%
    16:00 +22°C° 0 mm 4 mps 741 mmHg 44%
    17:00 +22°C° 0 mm 4 mps 741 mmHg 46%
    18:00 +20°C° 0 mm 4 mps 741 mmHg 53%
    19:00 +18°C° 0 mm 3 mps 741 mmHg 60%
    20:00 +17°C° 0 mm 2 mps 741 mmHg 67%
    21:00 +16°C° 0 mm 2 mps 741 mmHg 69%
    22:00 +15°C° 0 mm 2 mps 741 mmHg 71%
    23:00 +14°C° 0 mm 2 mps 742 mmHg 73%

    21 June, Thursday

    Time Temperature Precipitation Wind Pressure Humidity
    00:00 +13°C° 0 mm 2 mps 742 mmHg 76%
    01:00 +12°C° 0 mm 2 mps 742 mmHg 78%
    02:00 +12°C° 0 mm 2 mps 742 mmHg 81%
    03:00 +11°C° 0 mm 3 mps 742 mmHg 78%
    04:00 +11°C° 0 mm 3 mps 742 mmHg 76%
    05:00 +12°C° 0 mm 3 mps 742 mmHg 73%
    06:00 +13°C° 0 mm 3 mps 742 mmHg 67%
    07:00 +15°C° 0 mm 4 mps 742 mmHg 60%
    08:00 +17°C° 0 mm 4 mps 742 mmHg 53%
    09:00 +18°C° 0 mm 4 mps 742 mmHg 50%
    10:00 +20°C° 0 mm 4 mps 742 mmHg 47%
    11:00 +21°C° 0 mm 4 mps 742 mmHg 44%
    12:00 +22°C° 0 mm 4 mps 742 mmHg 44%
    13:00 +23°C° 0 mm 4 mps 741 mmHg 44%
    14:00 +25°C° 0 mm 4 mps 741 mmHg 44%
    15:00 +25°C° 0 mm 4 mps 741 mmHg 47%
    16:00 +25°C° 0 mm 3 mps 741 mmHg 49%
    17:00 +25°C° 0 mm 3 mps 740 mmHg 52%
    18:00 +23°C° 0 mm 2 mps 740 mmHg 60%
    19:00 +21°C° 0 mm 2 mps 740 mmHg 68%
    20:00 +19°C° 0 mm 2 mps 740 mmHg 76%
    21:00 +18°C° 0 mm 2 mps 740 mmHg 79%
    22:00 +17°C° 0 mm 2 mps 740 mmHg 82%
    23:00 +16°C° 0 mm 2 mps 740 mmHg 85%

    22 June, Friday

    Time Temperature Precipitation Wind Pressure Humidity
    00:00 +16°C° 0 mm 3 mps 739 mmHg 87%
    01:00 +16°C° 0 mm 3 mps 739 mmHg 88%
    02:00 +16°C° 0 mm 3 mps 739 mmHg 90%
    03:00 +16°C° 0 mm 3 mps 739 mmHg 88%
    04:00 +17°C° 0 mm 4 mps 738 mmHg 85%
    05:00 +17°C° 0 mm 4 mps 738 mmHg 83%
    06:00 +19°C° 0 mm 5 mps 738 mmHg 76%
    07:00 +21°C° 0 mm 5 mps 737 mmHg 69%
    08:00 +22°C° 0 mm 6 mps 737 mmHg 62%
    09:00 +23°C° 0 mm 6 mps 737 mmHg 60%
    10:00 +24°C° 0 mm 7 mps 736 mmHg 58%
    11:00 +26°C° 0 mm 7 mps 736 mmHg 56%
    12:00 +26°C° 0.6 mm 6 mps 736 mmHg 65%
    13:00 +24°C° 0.6 mm 6 mps 736 mmHg 74%
    14:00 +23°C° 0.6 mm 5 mps 736 mmHg 82%
    15:00 +23°C° 0.9 mm 5 mps 736 mmHg 85%
    16:00 +22°C° 0.9 mm 4 mps 736 mmHg 87%
    17:00 +22°C° 0.9 mm 4 mps 736 mmHg 90%
    18:00 +21°C° 1.2 mm 3 mps 736 mmHg 92%
    19:00 +20°C° 1.2 mm 2 mps 736 mmHg 94%
    20:00 +20°C° 1.2 mm 2 mps 736 mmHg 95%
    21:00 +19°C° 1.3 mm 2 mps 736 mmHg 96%
    22:00 +19°C° 1.3 mm 1 mps 736 mmHg 97%
    23:00 +19°C° 1.3 mm 1 mps 736 mmHg 98%

    23 June, Saturday

    Time Temperature Precipitation Wind Pressure Humidity
    00:00 +18°C° 0.2 mm 1 mps 736 mmHg 97%
    01:00 +18°C° 0.2 mm 1 mps 736 mmHg 97%
    02:00 +18°C° 0.2 mm 1 mps 737 mmHg 97%
    03:00 +16°C° 0.1 mm 1 mps 737 mmHg 97%
    04:00 +16°C° 0.1 mm 1 mps 737 mmHg 96%
    05:00 +16°C° 0.1 mm 2 mps 737 mmHg 96%
    06:00 +15°C° 0.4 mm 2 mps 737 mmHg 96%
    07:00 +15°C° 0.4 mm 2 mps 737 mmHg 95%
    08:00 +13°C° 0.4 mm 3 mps 737 mmHg 95%
    09:00 +13°C° 0.5 mm 3 mps 737 mmHg 96%
    10:00 +14°C° 0.5 mm 2 mps 737 mmHg 96%
    11:00 +13°C° 0.5 mm 2 mps 738 mmHg 96%
    12:00 +13°C° 0.2 mm 2 mps 738 mmHg 96%
    13:00 +13°C° 0.2 mm 2 mps 738 mmHg 96%
    14:00 +13°C° 0.2 mm 1 mps 739 mmHg 95%
    15:00 +13°C° 0.2 mm 1 mps 739 mmHg 95%
    16:00 +13°C° 0.2 mm 1 mps 739 mmHg 95%
    17:00 +13°C° 0.2 mm 1 mps 739 mmHg 95%
    18:00 +13°C° 0.2 mm 1 mps 739 mmHg 96%
    19:00 +13°C° 0.2 mm 1 mps 739 mmHg 96%
    20:00 +13°C° 0.2 mm 1 mps 739 mmHg 96%
    21:00 +12°C° 0.1 mm 1 mps 739 mmHg 96%
    22:00 +12°C° 0.1 mm 1 mps 739 mmHg 96%
    23:00 +12°C° 0.1 mm 1 mps 740 mmHg 96%
    Show more